{"data":{"norad_id":63486,"intl_designator":"2025-070AC","name":"STARLINK-33716","alt_names":[],"object_type":"PAYLOAD","status":"ACTIVE","operator":null,"country":"US","launch_date":"2025-04-06","launch_site_code":"AFETR","launch_vehicle":null,"mission":null,"orbit_class":"UNKNOWN","rcs_meters":null,"size_class":null,"mass_kg":null,"dimensions":null,"purposes":["comms"],"wikipedia_slug":null,"has_3d_model":false,"image_url":null,"decayed_at":null,"tle_current":{"epoch":"2026-05-25T03:50:30.590592Z","epoch_age_seconds":61518,"freshness":"FRESH","line1":"1 63486U 25070AC  26145.16007628  .00012727  00000+0  47110-3 0  9993","line2":"2 63486  43.0010 187.7505 0001414 271.7113  88.3577 15.27588078 64674","mean_motion":15.27588078,"eccentricity":0.0001414,"inclination_deg":43.001,"raan_deg":187.7505,"arg_perigee_deg":271.7113,"mean_anomaly_deg":88.3577,"bstar":0.0004711,"rev_number":6467,"period_min":94.266250224035,"perigee_km":482.05473941445,"apogee_km":483.99507600195,"semimajor_km":6861.1619077082,"source":"CELESTRAK","updated_at":"2026-05-25T13:38:20.010723Z"}}}